Location: Dittelbrunn
(50.0738°N, 10.2196°E)
Time: 03:18:01
(UTC+00:00)

CZ-4 R/B - Pass Details

Date: 18 September 2020
Orbit: 530 x 600 km, 97.7° (Epoch: 19 October)

Event Time Altitude Azimuth Distance (km) Brightness Sun altitude
Rises 18:45:09 0° 200° (SSW) 2,838 5.0 -13.4°
Reaches altitude 10° 18:47:43 10° 216° (SW) 1,940 4.3 -13.8°
Maximum altitude 18:51:01 22° 268° (W) 1,333 4.1 -14.3°
Drops below altitude 10° 18:54:19 10° 319° (NW) 1,943 5.1 -14.8°
Sets 18:56:54 0° 335° (NNW) 2,842 5.7 -15.2°
